Location: Newark
(54.4000°N, 32.4500°E)
Time: 12:12:13
(UTC+00:00)

ISS - Pass Details

Date: 26 January 2020
Orbit: 416 x 422 km, 51.6° (Epoch: 20 February)

Event Time Altitude Azimuth Distance (km) Brightness Sun altitude
Rises 15:50:13 0° 232° (SW) 2,372 1.4 -13.4°
Reaches altitude 10° 15:52:27 10° 222° (SW) 1,509 -0.1 -13.7°
Maximum altitude 15:55:30 32° 158° (SSE) 759 -2.6 -14.1°
Enters shadow 15:56:52 23° 115° (ESE) 958 -2.4 -14.3°
